Regional Weather Roundup
Issued by NWS Green Bay, WI

Home | Current Version | Previous Version | Text Only | Print | Product List | Glossary On
Versions: 1 2 3 4 5 6 7 8 9 10 11 12 13 14 15 16 17 18 19 20 21 22 23 24 25 26 27 28 29 30 31 32 33 34 35 36 37 38 39 40 41 42 43 44 45 46 47 48 49 50
000
ASUS43 KGRB 281011
RWRGRB

NORTH-CENTRAL AND NORTHEAST WISCONSIN REGIONAL WEATHER ROUNDUP
NATIONAL WEATHER SERVICE GREEN BAY WI
500 AM CDT TUE MAR 28 2017

WIZ005-009-010>012-018-019-281100-
NORTH CENTRAL WISCONSIN

CITY           SKY/WX    TMP DP  RH WIND       PRES   REMARKS
IRONWOOD       PTCLDY    23  22  96 CALM      30.08S
MANITOWISH WTR CLEAR     23  23 100 CALM      30.06S
ARBOR VITAE    CLEAR     25  24  95 N3        30.06R
EAGLE RIVER    CLEAR     24  24 100 CALM      30.06R
LAND O LAKES   CLEAR     23  22  96 CALM      30.08R
RHINELANDER    CLEAR     26  24  92 CALM      30.07R
PHILLIPS       CLEAR     23  22  99 CALM      30.06R
ANTIGO         FOG       27  27 100 N5        30.06R VSB 1
TOMAHAWK       CLEAR     23  22  96 CALM      30.07R
MERRILL        CLEAR     24  24 100 CALM      30.08R
$$

WIZ013-073-281100-
NORTHEAST WISCONSIN

CITY           SKY/WX    TMP DP  RH WIND       PRES   REMARKS
IRON MOUNTAIN  CLEAR     25  22  88 NW3       30.06R
MARINETTE        N/A    N/A N/A N/A MISG        N/A
OCONTO         PTCLDY    28  28  99 CALM      30.07R
$$

WIZ017-030-035>037-045-281100-
CENTRAL WISCONSIN

CITY           SKY/WX    TMP DP  RH WIND       PRES   REMARKS
MEDFORD        CLEAR     28  28  99 CALM      30.06R
WAUSAU         PTCLDY    28  27  96 NW3       30.05R
MOSINEE        CLOUDY    34  34 100 CALM      30.07R
MARSHFIELD     FOG       30  28  92 N5        30.05R VSB 1/2
WISC RAPIDS    CLOUDY    40  38  93 N3        30.07R
STEVENS POINT  CLOUDY    37  37  99 CALM      30.06R
WAUPACA        CLOUDY    42  38  85 CALM      30.06R
SHAWANO        FOG       32  31  96 CALM      30.07R VSB 1
CLINTONVILLE   FOG       32  32 100 CALM      30.06S VSB 1/2
WAUTOMA        CLOUDY    41  37  86 NE3       30.07R
$$

WIZ038-039-048-051-281100-
FOX VALLEY

CITY           SKY/WX    TMP DP  RH WIND       PRES   REMARKS
NWS GREEN BAY  CLEAR     34  34 100 NW3       30.06R
APPLETON       CLEAR     34  34 100 N5        30.03F
OSHKOSH        PTCLDY    36  34  92 N6        30.05R
FOND DU LAC    CLEAR     37  34  89 NE5       30.05R
$$

WIZ022-050-052-281100-
EAST CENTRAL WISCONSIN

CITY           SKY/WX    TMP DP  RH WIND       PRES   REMARKS
EPHRAIM        FAIR      33  33 100 N7        30.05R
WASHINGTON ISL FOG       28  28  99 N5        30.05R VSB 1/4
STURGEON BAY   CLEAR     32  31  96 NW3       30.04R
MANITOWOC      CLOUDY    39  36  89 N6        30.06R
SHEBOYGAN      CLOUDY    39  36  89 N7        30.04S
$$

LMZ563-521-522-541>543-281100-
LAKESHORE

STATION/POSITION TIME  TEMP    WIND        PRES    VSBY  WAVE
                       AIR SEA DIR/SP/G                  HT/PER
                 (UTC) (F)     (DEG/KT/KT) (MB)    (MI)  (FT/S)
SHEBOYGAN LKSHOR 1000   40     330/  8/  9 1017.7R
KEWAUNEE LKSHORE 0948   36     330/  2/  5 1017.3R
NORTHPORT PIER   0940   33     300/  5/  6 1017.6R
SISTER BAY LKSHO 0936   30        CALM       N/A
CHAMBERS ISLAND  0940   32     300/  3/  6 1017.6R
MENOMINEE LKSHOR 0948   32     300/  6/  7 1017.3R
$$




USA.gov is the U.S. government's official web portal to all federal, state and local government web resources and services.